Regional Weather Roundup
Issued by NWS

Home | Current Version | Previous Version | Graphics & Text | Print | Product List | Glossary On
Versions: 1 2 3 4 5 6 7 8 9 10 11 12 13 14 15 16 17 18 19 20 21 22 23 24 25 26 27 28 29 30 31 32 33 34 35 36 37 38 39 40 41 42 43 44 45 46 47 48 49 50
370
ASUS45 KTFX 311110
RWRMT
MONTANA REGIONAL WEATHER ROUNDUP
NATIONAL WEATHER SERVICE GREAT FALLS MT
500 AM MDT TUE MAY 31 2016

NOTE: "FAIR" INDICATES FEW OR NO CLOUDS BELOW 12000 FEET WITH NO
SIGNIFICANT WEATHER AND/OR OBSTRUCTIONS TO VISIBILITY.

MTZ001>007-043-311200-
WEST OF THE DIVIDE

CITY           SKY/WX    TMP DP  RH WIND       PRES   REMARKS
KALISPELL      CLEAR     46  38  73 N7        30.19R
MISSOULA       CLEAR     41  34  76 CALM      30.21S
BUTTE          CLEAR     32  26  78 SE5       30.24R
MULLAN PASS    CLEAR     43  26  51 N5        30.22F
ANACONDA         N/A     36  30  80 SW5       30.24R
DEER LODGE       N/A     39  34  81 W5        30.25R
EUREKA           N/A     37  36  93 CALM      30.24R
HAMILTON         N/A     39  32  75 S3        30.20R
LIBBY            N/A     37  34  87 CALM      30.22S
$$

MTZ008-052>055-311200-
SOUTHWEST MONTANA

CITY           SKY/WX    TMP DP  RH WIND       PRES   REMARKS
BOZEMAN        CLEAR     34  32  92 SE6       30.23R WCI  29
DILLON         CLEAR     39  32  76 E3        30.21R
W YELLOWSTONE  CLEAR     27  25  93 CALM      30.22S
ENNIS          CLEAR     36  30  80 CALM      30.27R
$$

MTZ009-010-012-014-046-048-049-054-311200-
EAST SLOPES AND CENTRAL MONTANA

CITY           SKY/WX    TMP DP  RH WIND       PRES   REMARKS
CUT BANK       CLEAR     39  37  92 NW13      30.23S WCI  31
GREAT FALLS    CLEAR     43  37  79 NW13      30.22S
MALMSTROM AFB  CLEAR     44  39  82 W9        30.23R
HELENA         PTCLDY    46  35  65 W8        30.23R
CHOTEAU          N/A     41  37  87 NW12      30.25S
$$

MTZ011-013-016-021-045-047-050-051-311200-
NORTH CENTRAL MONTANA

CITY           SKY/WX    TMP DP  RH WIND       PRES   REMARKS
HAVRE          CLOUDY    47  44  90 NW20G26   30.11R
LEWISTOWN      CLOUDY    44  37  76 NW25G35   30.15R
N BAR RANCH    CLOUDY    43  36  75 NW28G46   30.09R
CHINOOK          N/A     48  46  93 W15G21    30.08R
$$

MTZ017>020-022>027-061-062-311200-
NORTHEAST MONTANA

CITY           SKY/WX    TMP DP  RH WIND       PRES   REMARKS
GLASGOW        CLOUDY    51  49  92 NW13      29.87R
JORDAN           N/A     48  46  93 W21G29    29.90F
SIDNEY         CLOUDY    50  46  86 W14       29.78F
WOLF POINT     LGT RAIN  52  50  93 W10       29.81F
POPLAR           N/A     50  46  87 W8        29.81F
$$

MTZ028>42-056>058-311200-
SOUTHCENTRAL AND SOUTHEAST MONTANA

CITY           SKY/WX    TMP DP  RH WIND       PRES   REMARKS
BAKER          CLOUDY    46  42  86 W20G25    29.88F
BILLINGS       PTCLDY    49  34  56 NW20G31   30.10F
LIVINGSTON     PTCLDY    42  32  67 SW8       30.21R
MILES CITY     RAIN      48  46  93 W16       29.92F FOG
FORSYTH          N/A     48  45  87 W23G30    29.96F
$$

REGIONAL REPORTS...DAKOTAS

CITY           SKY/WX    TMP DP  RH WIND       PRES   REMARKS
WILLISTON      CLOUDY    51  48  89 W9        29.76S
MINOT          LGT RAIN  57  54  89 NW6       29.68F FOG
DICKINSON      CLOUDY    45  42  89 W16       29.80F
BEACH          CLOUDY    46  46 100 W16G25    29.86S
CROSBY         RAIN      54  54 100 NE20      29.75F
WATFORD CITY   MOCLDY    46  46 100 W12       29.76F
BISMARCK       CLEAR     49  45  86 W17       29.79R
GRAND FORKS    CLOUDY    60  57  89 S13       29.68R
FARGO          CLOUDY    62  58  86 S12       29.73S
BUFFALO SD       N/A     48  40  73 W22G32    29.85F
RAPID CITY     CLEAR     43  33  68 W8        29.99F
$$

REGIONAL REPORTS...WYOMING/IDAHO/WASHINGTON

CITY           SKY/WX    TMP DP  RH WIND       PRES   REMARKS
GILLETTE       CLEAR     43  38  82 W16       30.06F
SHERIDAN       CLEAR     45  32  60 CALM      30.09R
BUFFALO WY     CLEAR     42  29  59 W10       30.10F
CODY           CLEAR     37  30  75 CALM      30.15S
YELLOWSTONE LA   N/A     27  22  81 NW3       30.25S
IDAHO FALLS    CLEAR     38  32  79 N5        30.14S
SALMON         CLEAR     37  27  65 CALM      30.18S
BOISE          CLEAR     52  37  56 VRB3      30.09S
SPOKANE        PTCLDY    50  34  54 CALM      30.16F
$$

REGIONAL REPORTS...ALBERTA

CITY           SKY/WX    TMP DP  RH WIND       PRES   REMARKS
EDMONTON       PTCLDY    43  37  81 NW6       30.22S
CALGARY        PTCLDY    41  36  81 N3        30.25S
LETHBRIDGE     PTCLDY    41  39  93 W13       30.24S
MEDICINE HAT   LGT RAIN  48  46  93 NW16G22   30.15R
WATERTON GATE    N/A     37  36  93 SW3         N/A
MILK RIVER       N/A     41  37  87 NW16        N/A
$$

REGIONAL REPORTS...SASKATCHEWAN

CITY           SKY/WX    TMP DP  RH WIND       PRES   REMARKS
SWIFT CURRENT  MOCLDY    48  48 100 N12G17    30.01R
REGINA         LGT RAIN  52  52 100 N13       29.89S FOG
SASKATOON      CLOUDY    48  48 100 N9        30.05R
CYPRESS HILLS    N/A     45  43  93 N10G21      N/A
VAL MARIE        N/A     50  48  93 N21G28      N/A
ROCKGLEN         N/A     48  48 100 N15         N/A
ASSINIBOIA       N/A     48  46  93 NW9         N/A
$$




USA.gov is the U.S. government's official web portal to all federal, state and local government web resources and services.